DJ2KUA-6 Weather Reports


time (UTC)temp
C
wind
direction
speed
KPH
gust
KPH
rain 1hr
cm
rain 24hr
cm
rain mn
cm
humidity
%
barometer
mb
20260507090654 12 270 0.0 0.0 0.00 1.50 0.00 84 1067.0
20260507084756 11 338 0.0 0.0 0.00 1.50 0.00 85 1067.0
20260507082855 12 338 0.0 0.0 0.00 1.50 0.00 85 1067.0
20260507080957 11 0 0.0 0.0 0.00 1.50 0.00 86 1067.0
20260507075055 12 315 0.0 0.0 0.00 1.55 0.00 85 1066.0
20260507073155 12 338 0.0 0.0 0.00 1.55 0.00 86 1066.0
20260507071539 12 270 0.0 0.0 0.00 1.55 0.00 87 1066.0
20260507071254 12 270 0.0 0.0 0.00 1.55 0.00 87 1066.0
20260507063455 11 292 0.0 0.0 0.00 1.55 0.00 86 1066.0
20260507061554 11 338 0.0 0.0 0.00 1.55 0.00 86 1066.0
20260507055657 10 315 0.0 0.0 0.00 1.55 0.00 85 1066.0
20260507053756 10 112 0.0 0.0 0.00 1.55 0.00 85 1065.0
20260507051855 10 315 0.0 0.0 0.00 1.55 0.00 85 1065.0
20260507044056 10 315 0.0 0.0 0.00 1.55 0.00 85 1065.0
20260507042153 10 315 0.0 0.0 0.05 1.55 0.00 85 1064.0
20260507040254 10 292 0.0 0.0 0.05 1.55 0.00 85 1064.0
20260507034355 10 315 0.0 0.0 0.05 1.55 0.00 85 1064.0
20260507032455 10 315 0.0 0.0 0.00 1.50 0.00 85 1064.0
20260507030555 10 315 0.0 0.0 0.00 1.50 0.00 85 1064.0
20260507024655 10 315 0.0 0.0 0.05 1.50 0.00 85 1064.0
20260507022754 10 315 0.0 0.0 0.05 1.50 0.00 85 1064.0
20260507020853 10 292 0.0 0.0 0.05 0.05 0.00 86 1063.0
20260507014955 10 315 0.0 0.0 0.00 1.45 0.00 86 1063.0
20260507013053 10 0 0.0 0.0 0.00 1.45 0.00 86 1063.0
20260507011153 10 338 0.0 0.0 0.00 1.45 0.00 86 1063.0
20260507005254 10 270 0.0 0.0 0.05 1.45 0.00 86 1063.0
20260507003353 11 338 0.0 0.0 0.10 1.45 0.00 86 1062.0
20260507001456 11 338 0.0 0.0 0.15 1.45 0.00 86 1062.0
20260506235554 11 338 0.0 0.0 0.15 1.40 0.00 86 1062.0
20260506231755 11 292 0.0 0.0 0.15 1.27 0.00 86 1062.0
20260506225854 11 292 0.0 0.0 0.30 1.22 0.00 86 1062.0
20260506223954 11 292 0.0 0.0 0.46 1.17 0.00 86 1062.0
20260506222056 11 315 0.0 0.0 0.51 1.12 0.00 86 1062.0
20260506220157 11 315 0.0 0.0 0.36 0.91 0.00 86 1062.0
20260506214254 11 135 0.0 0.0 0.30 0.71 0.00 86 1062.0
20260506212355 11 135 0.0 0.0 0.30 0.61 0.00 86 1061.0
20260506210456 11 158 0.0 0.0 0.36 0.56 0.00 87 1061.0
20260506204556 11 135 0.0 0.0 0.25 0.41 0.00 87 1061.0
20260506202654 11 338 0.0 0.0 0.20 0.30 0.00 87 1061.0
20260506200754 11 292 0.0 0.0 0.10 0.20 0.00 87 1061.0
20260506194854 12 135 0.0 0.0 0.05 0.15 0.00 87 1061.0
20260506192956 12 112 0.0 0.0 0.00 0.10 0.00 86 1060.0
20260506191054 12 315 0.0 0.0 0.00 0.10 0.00 86 1060.0
20260506185154 13 135 0.0 0.0 0.00 0.25 0.00 85 1060.0
20260506181356 13 135 0.0 0.0 0.00 0.25 0.00 84 1060.0
20260506175456 13 315 0.0 0.0 0.00 0.30 0.00 83 1059.0
20260506173557 14 90 0.0 0.0 0.00 0.30 0.00 82 1059.0
20260506171653 14 112 0.0 0.0 0.05 0.30 0.00 83 1059.0
20260506165754 14 135 0.0 0.0 0.05 0.30 0.00 83 1059.0
20260506163856 14 135 0.0 0.0 0.05 0.30 0.00 83 1059.0
20260506161954 14 158 0.0 0.0 0.00 0.25 0.00 80 1059.0
20260506160056 15 135 0.0 0.0 0.00 0.25 0.00 76 1059.0
20260506154155 16 135 0.0 0.0 0.00 0.25 0.00 72 1059.0
20260506152255 17 158 0.0 0.0 0.00 0.25 0.00 68 1059.0
20260506144455 18 292 0.0 0.0 0.00 0.25 0.00 62 1058.0
20260506142554 18 292 0.0 0.0 0.00 0.25 0.00 60 1058.0
20260506140654 18 270 0.0 0.0 0.00 0.25 0.00 60 1058.0
20260506134755 19 315 0.0 0.0 0.00 0.30 0.00 58 1058.0
20260506132855 20 315 0.0 0.0 0.00 0.30 0.00 55 1058.0
20260506130956 21 292 0.0 0.0 0.00 0.30 0.00 54 1058.0
20260506125056 20 315 0.0 0.0 0.00 0.36 0.00 57 1058.0
20260506123156 20 292 0.0 0.0 0.00 0.36 0.00 58 1058.0
20260506121257 21 90 0.0 0.0 0.00 0.36 0.00 57 1058.0
20260506115354 21 315 0.0 0.0 0.00 0.36 0.00 59 1058.0